Location: Newark
(48.1500°N, 2.9667°W)
Time: 03:29:31
(UTC+00:00)

Transit 2A - Pass Details

Date: 01 February 2020
Orbit: 600 x 959 km, 66.7° (Epoch: 17 February)

Event Time Altitude Azimuth Distance (km) Brightness Sun altitude
Rises 18:58:59 0° 223° (SW) 2,868 9.8 -18.2°
Reaches altitude 10° 19:01:16 10° 227° (SW) 1,949 8.9 -18.6°
Maximum altitude 19:05:33 61° 308° (NW) 688 5.9 -19.3°
Enters shadow 19:08:10 23° 23° (NNE) 1,310 7.0 -19.7°
Drops below altitude 10° 19:09:54 10° 29° (NNE) 1,971 - -20.0°
Sets 19:12:13 0° 34° (NNE) 2,904 - -20.4°
